KC1ELF Weather Reports


time (UTC)temp
F
wind
direction
speed
knots
gust
knots
rain 1hr
in
rain 24hr
in
rain mn
in
humidity
%
barometer
mb
20260507180135 69 350 3.5 12.2 0.00 0.31 0.03 34 1005.7
20260507175136 66 23 5.2 13.0 0.00 0.31 0.03 35 1005.5
20260507174136 67 86 4.3 13.0 0.00 0.31 0.03 37 1005.5
20260507173137 66 51 6.1 13.0 0.00 0.31 0.03 38 1005.4
20260507172136 64 264 5.2 13.0 0.00 0.31 0.03 41 1005.6
20260507171135 62 65 5.2 13.0 0.00 0.31 0.03 43 1005.7
20260507170135 62 30 6.1 13.0 0.00 0.31 0.03 44 1006.1
20260507165135 62 344 3.5 9.6 0.00 0.31 0.03 46 1006.1
20260507164137 61 344 5.2 9.6 0.00 0.31 0.03 47 1006.0
20260507163138 61 23 4.3 9.6 0.00 0.31 0.03 54 1006.3
20260507162135 60 31 4.3 9.6 0.00 0.31 0.03 55 1006.2
20260507161136 60 15 3.5 8.7 0.00 0.31 0.03 56 1006.3
20260507160136 60 148 4.3 8.7 0.00 0.31 0.03 59 1006.4
20260507155136 60 330 3.5 8.7 0.00 0.31 0.03 59 1006.4
20260507154136 60 61 4.3 8.7 0.00 0.31 0.03 61 1006.5
20260507153137 59 44 2.6 8.7 0.00 0.31 0.03 62 1006.7
20260507152136 58 36 3.5 8.7 0.00 0.31 0.03 61 1006.7
20260507151135 58 71 5.2 8.7 0.00 0.31 0.03 60 1006.8
20260507150135 59 314 4.3 8.7 0.00 0.31 0.03 58 1007.0
20260507145137 60 72 2.6 8.7 0.00 0.31 0.03 58 1007.0
20260507144138 61 284 2.6 8.7 0.00 0.31 0.03 61 1007.0
20260507143135 59 351 3.5 8.7 0.00 0.31 0.03 61 1007.0
20260507142137 59 53 2.6 8.7 0.00 0.31 0.03 60 1007.0
20260507141136 58 66 2.6 7.0 0.00 0.31 0.03 61 1006.9
20260507140135 57 358 4.3 7.0 0.00 0.31 0.03 62 1006.7
20260507135136 57 76 4.3 7.8 0.00 0.31 0.03 63 1006.7
20260507134135 56 348 2.6 7.8 0.00 0.31 0.03 68 1006.8
20260507133137 55 43 2.6 7.8 0.00 0.31 0.03 68 1007.0
20260507132137 54 55 3.5 7.8 0.00 0.31 0.03 69 1007.2
20260507131136 53 30 3.5 7.8 0.00 0.31 0.03 70 1007.4
20260507130137 53 69 4.3 7.8 0.00 0.31 0.03 73 1007.4
20260507125136 52 52 2.6 7.8 0.00 0.31 0.03 76 1007.5
20260507124135 51 36 2.6 6.1 0.00 0.31 0.03 78 1007.6
20260507123135 51 56 3.5 6.1 0.00 0.31 0.03 79 1007.4
20260507122136 50 61 1.7 5.2 0.00 0.31 0.03 80 1007.4
20260507121136 50 57 2.6 5.2 0.00 0.31 0.03 82 1007.6
20260507120136 50 62 2.6 5.2 0.00 0.31 0.03 83 1007.5
20260507115137 50 19 1.7 5.2 0.00 0.31 0.03 85 1007.4
20260507114136 49 1 0.9 5.2 0.00 0.31 0.03 85 1007.4
20260507113136 49 14 2.6 5.2 0.00 0.31 0.03 85 1007.2
20260507112139 49 58 1.7 6.1 0.00 0.31 0.03 85 1007.1
20260507111137 49 349 0.9 6.1 0.00 0.31 0.03 86 1007.2
20260507110136 48 48 1.7 6.1 0.00 0.31 0.03 86 1007.4
20260507105136 48 344 1.7 6.1 0.00 0.31 0.03 86 1007.1
20260507104136 48 68 2.6 6.1 0.00 0.31 0.03 87 1006.7
20260507103136 48 80 2.6 6.1 0.00 0.31 0.03 88 1006.7
20260507102136 48 47 1.7 4.3 0.00 0.31 0.03 89 1006.6
20260507101137 48 21 2.6 4.3 0.00 0.31 0.03 90 1006.7
20260507100136 48 32 1.7 4.3 0.00 0.31 0.03 90 1006.7
20260507095136 48 351 1.7 4.3 0.00 0.31 0.03 91 1007.1
20260507094135 48 97 1.7 2.6 0.00 0.31 0.03 91 1006.7
20260507093137 48 47 0.9 5.2 0.00 0.31 0.03 91 1006.8
20260507092136 48 353 0.9 5.2 0.00 0.31 0.03 91 1006.9
20260507091136 48 316 0.0 5.2 0.00 0.31 0.03 91 1007.2
20260507090135 48 322 0.9 5.2 0.00 0.31 0.03 90 1006.7
20260507085135 48 63 1.7 5.2 0.01 0.31 0.03 89 1006.6
20260507084135 48 43 0.9 5.2 0.01 0.31 0.03 89 1006.9
20260507083037 48 58 1.7 5.2 0.01 0.31 0.03 90 1006.7
20260507082136 49 22 1.7 5.2 0.01 0.31 0.03 90 1006.6
20260507081136 49 332 0.9 5.2 0.01 0.31 0.03 90 1006.5
20260507080136 50 43 0.9 5.2 0.01 0.31 0.03 89 1006.7
20260507075137 50 32 1.7 5.2 0.00 0.30 0.02 89 1006.7
20260507074136 50 40 1.7 4.3 0.00 0.30 0.02 89 1006.9
20260507073137 50 75 1.7 4.3 0.00 0.30 0.02 89 1006.2
20260507072137 50 38 1.7 4.3 0.00 0.30 0.02 90 1006.0
20260507071136 50 347 0.9 3.5 0.00 0.30 0.02 90 1006.3
20260507070136 50 12 0.9 4.3 0.00 0.30 0.02 90 1006.1
20260507065136 50 88 0.9 4.3 0.00 0.30 0.02 90 1006.1
20260507064136 50 338 0.9 7.8 0.00 0.30 0.02 90 1005.9
20260507063137 50 46 0.9 7.8 0.00 0.30 0.02 89 1005.9
20260507062135 50 38 0.9 7.8 0.00 0.30 0.02 89 1005.8
20260507061136 50 42 1.7 7.8 0.00 0.30 0.02 88 1005.9
20260507060136 51 53 2.6 7.8 0.00 0.30 0.02 88 1006.0
20260507055137 51 58 2.6 7.8 0.00 0.30 0.02 89 1006.3
20260507054136 51 44 2.6 6.1 0.00 0.30 0.02 90 1006.4
20260507053137 51 53 1.7 7.8 0.00 0.30 0.02 90 1006.2
20260507052136 52 44 2.6 7.8 0.00 0.30 0.02 90 1006.7
20260507051136 52 334 2.6 7.8 0.01 0.30 0.02 91 1006.4
20260507050136 53 62 2.6 7.8 0.01 0.30 0.02 92 1006.5
20260507045136 53 33 2.6 7.8 0.01 0.30 0.02 92 1006.3
20260507044136 54 60 2.6 7.8 0.01 0.30 0.02 92 1006.1
20260507043138 55 58 3.5 7.8 0.01 0.30 0.02 92 1006.1
20260507042136 56 40 1.7 7.8 0.01 0.30 0.02 92 1006.1
20260507041137 57 47 0.9 7.8 0.01 0.29 0.01 91 1006.4
20260507040136 57 64 2.6 7.0 0.01 0.29 0.01 92 1006.1
20260507035136 58 46 3.5 7.0 0.01 0.29 0.01 93 1005.7
20260507034137 58 25 1.7 7.0 0.01 0.29 0.01 93 1005.7
20260507033136 58 66 1.7 7.0 0.01 0.29 0.01 94 1005.5
20260507032136 59 39 3.5 7.0 0.01 0.29 0.01 94 1005.3
20260507031136 58 22 2.6 5.2 0.00 0.28 0.00 94 1005.3
20260507030136 58 9 1.7 5.2 0.00 0.28 0.00 94 1005.0
20260507025136 59 274 1.7 5.2 0.00 0.28 0.00 94 1005.1
20260507024135 58 251 1.7 4.3 0.00 0.28 0.00 94 1005.0
20260507023136 58 308 2.6 7.8 0.00 0.28 0.00 94 1005.1
20260507022137 58 222 1.7 7.8 0.00 0.28 0.00 93 1004.9
20260507021135 58 255 1.7 7.8 0.00 0.28 0.00 93 1005.0
20260507020135 58 287 1.7 8.7 0.00 0.28 0.00 93 1005.0
20260507015136 58 141 0.9 8.7 0.00 0.28 0.00 93 1005.2
20260507014136 58 279 3.5 9.6 0.00 0.28 0.00 93 1005.1
20260507013137 58 272 1.7 9.6 0.00 0.28 0.00 93 1005.2
20260507012137 58 269 0.9 9.6 0.00 0.28 0.00 93 1005.3
20260507011137 58 317 2.6 9.6 0.00 0.28 0.00 93 1005.4
20260507010136 59 3 1.7 9.6 0.00 0.28 0.00 93 1005.3
20260507005136 59 287 2.6 9.6 0.00 0.28 0.00 93 1005.4
20260507004137 59 264 2.6 6.1 0.01 0.28 0.00 93 1005.2
20260507003136 59 294 2.6 6.1 0.01 0.28 0.00 93 1005.1
20260507002136 59 264 2.6 6.1 0.02 0.28 0.00 93 1005.0
20260507001137 59 275 1.7 6.1 0.05 0.28 0.00 93 1005.1
20260507000136 59 265 1.7 6.1 0.06 0.28 0.00 93 1005.1
20260506235136 59 341 2.6 6.1 0.07 0.28 0.28 93 1005.0
20260506234136 59 277 2.6 6.1 0.08 0.27 0.27 93 1005.0
20260506233136 59 275 1.7 6.1 0.10 0.27 0.27 93 1005.0
20260506232140 59 239 2.6 6.1 0.12 0.26 0.26 92 1005.0
20260506231136 59 327 1.7 6.1 0.09 0.23 0.23 92 1005.2
20260506230136 59 311 2.6 6.1 0.09 0.22 0.22 92 1005.4
20260506225136 59 69 2.6 7.0 0.09 0.21 0.21 92 1005.3
20260506224136 59 203 4.3 7.0 0.07 0.19 0.19 92 1005.4
20260506223136 59 152 1.7 7.0 0.06 0.17 0.17 91 1005.4
20260506222136 59 258 1.7 7.0 0.03 0.14 0.14 91 1005.5
20260506221136 60 291 2.6 7.0 0.03 0.14 0.14 91 1005.6
20260506220136 60 128 3.5 7.8 0.03 0.13 0.13 91 1005.7
20260506215136 60 274 2.6 7.8 0.03 0.12 0.12 91 1005.6
20260506214135 60 161 2.6 9.6 0.04 0.12 0.12 90 1005.6
20260506213137 60 72 2.6 9.6 0.05 0.11 0.11 90 1005.8
20260506212136 60 306 1.7 9.6 0.06 0.11 0.11 90 1006.0
20260506211135 60 260 3.5 9.6 0.08 0.11 0.11 89 1006.3
20260506210137 61 303 3.5 9.6 0.07 0.10 0.10 88 1006.1
20260506205138 61 225 3.5 9.6 0.07 0.09 0.09 87 1006.2
20260506204137 61 270 2.6 7.0 0.06 0.08 0.08 86 1006.3
20260506203136 61 281 2.6 7.0 0.05 0.06 0.06 86 1006.3
20260506202137 62 323 2.6 7.0 0.04 0.05 0.05 84 1006.1
20260506201136 63 310 3.5 6.1 0.03 0.03 0.03 83 1006.1
20260506200136 63 187 2.6 8.7 0.03 0.03 0.03 83 1006.2
20260506195136 64 211 1.7 9.6 0.02 0.02 0.02 81 1006.2
20260506194136 64 20 0.9 9.6 0.02 0.02 0.02 79 1006.3
20260506193138 65 158 1.7 12.2 0.01 0.01 0.01 77 1006.3
20260506192136 66 289 3.5 12.2 0.01 0.01 0.01 75 1006.2
20260506191136 67 190 3.5 12.2 0.00 0.00 0.00 71 1006.3
20260506190137 68 303 4.3 12.2 0.00 0.00 0.00 68 1006.3
20260506185136 69 243 3.5 12.2 0.00 0.00 0.00 66 1006.3
20260506184136 70 221 6.1 12.2 0.00 0.00 0.00 63 1006.1
20260506183136 71 311 5.2 12.2 0.00 0.00 0.00 60 1006.3
20260506182136 71 223 5.2 12.2 0.00 0.00 0.00 59 1006.1
20260506181136 72 311 3.5 12.2 0.00 0.00 0.00 59 1006.3